| time (UTC) | temp F | wind direction | speed MPH | gust MPH | rain 1hr in | rain 24hr in | rain mn in | humidity % | barometer mb |
| 20260505113003 | 47 | 222 | 9.0 | 18.0 | 0.00 | 0.00 | 0.00 | 90 | 1008.2 |
| 20260505112024 | 47 | 211 | 14.0 | 18.0 | 0.00 | 0.00 | 0.00 | 91 | 1008.3 |
| 20260505111002 | 46 | 230 | 5.0 | 10.0 | 0.00 | 0.00 | 0.00 | 91 | 1008.3 |
| 20260505102003 | 46 | 220 | 7.0 | 11.0 | 0.00 | 0.00 | 0.00 | 90 | 1007.9 |
| 20260505101003 | 46 | 226 | 8.0 | 12.0 | 0.00 | 0.00 | 0.00 | 90 | 1008.0 |
| 20260505100004 | 46 | 241 | 5.0 | 10.0 | 0.00 | 0.00 | 0.00 | 90 | 1007.9 |
| 20260505095003 | 46 | 241 | 4.0 | 11.0 | 0.00 | 0.00 | 0.00 | 90 | 1008.0 |
| 20260505094003 | 46 | 227 | 8.0 | 12.0 | 0.00 | 0.00 | 0.00 | 90 | 1008.0 |
| 20260505093003 | 46 | 244 | 5.0 | 10.0 | 0.00 | 0.00 | 0.00 | 90 | 1007.9 |
| 20260505092003 | 46 | 244 | 5.0 | 10.0 | 0.00 | 0.00 | 0.00 | 89 | 1007.7 |
| 20260505091003 | 46 | 250 | 6.0 | 10.0 | 0.00 | 0.00 | 0.00 | 90 | 1007.7 |
| 20260505090024 | 46 | 244 | 6.0 | 10.0 | 0.00 | 0.00 | 0.00 | 90 | 1007.9 |
| 20260505085003 | 46 | 242 | 6.0 | 10.0 | 0.00 | 0.00 | 0.00 | 89 | 1007.8 |
| 20260505084003 | 46 | 236 | 7.0 | 14.0 | 0.00 | 0.00 | 0.00 | 89 | 1007.9 |
| 20260505083002 | 46 | 246 | 5.0 | 10.0 | 0.00 | 0.00 | 0.00 | 89 | 1007.9 |
| 20260505082003 | 46 | 255 | 7.0 | 14.0 | 0.00 | 0.00 | 0.00 | 89 | 1008.0 |
| 20260505081003 | 46 | 258 | 9.0 | 14.0 | 0.00 | 0.00 | 0.00 | 89 | 1008.0 |
| 20260505080003 | 46 | 254 | 8.0 | 14.0 | 0.00 | 0.00 | 0.00 | 89 | 1008.0 |
| 20260505075003 | 46 | 252 | 5.0 | 10.0 | 0.00 | 0.00 | 0.00 | 89 | 1008.0 |
| 20260505074024 | 46 | 257 | 8.0 | 12.0 | 0.00 | 0.00 | 0.00 | 89 | 1007.8 |
| 20260505073003 | 46 | 256 | 5.0 | 10.0 | 0.00 | 0.00 | 0.00 | 88 | 1007.8 |
| 20260505072045 | 46 | 253 | 6.0 | 10.0 | 0.00 | 0.00 | 0.00 | 88 | 1007.8 |
| 20260505071024 | 46 | 241 | 7.0 | 10.0 | 0.00 | 0.00 | 0.00 | 88 | 1007.7 |
| 20260505070024 | 46 | 242 | 5.0 | 10.0 | 0.00 | 0.00 | 0.00 | 88 | 1007.7 |
| 20260505065003 | 47 | 254 | 7.0 | 12.0 | 0.00 | 0.00 | 0.00 | 88 | 1007.7 |
| 20260505064002 | 46 | 257 | 6.0 | 11.0 | 0.00 | 0.00 | 0.00 | 88 | 1007.7 |
| 20260505063003 | 46 | 248 | 5.0 | 9.0 | 0.00 | 0.00 | 0.00 | 88 | 1007.8 |
| 20260505062003 | 46 | 233 | 7.0 | 11.0 | 0.00 | 0.00 | 0.00 | 87 | 1007.8 |
| 20260505061002 | 47 | 246 | 6.0 | 10.0 | 0.00 | 0.00 | 0.00 | 87 | 1007.7 |
| 20260505060002 | 47 | 248 | 6.0 | 10.0 | 0.00 | 0.00 | 0.00 | 87 | 1007.7 |
| 20260505055003 | 47 | 250 | 5.0 | 10.0 | 0.00 | 0.00 | 0.00 | 86 | 1007.8 |
| 20260505054024 | 47 | 247 | 6.0 | 11.0 | 0.00 | 0.00 | 0.00 | 86 | 1007.8 |
| 20260505053003 | 47 | 248 | 6.0 | 11.0 | 0.00 | 0.00 | 0.00 | 85 | 1007.8 |
| 20260505052003 | 47 | 241 | 7.0 | 11.0 | 0.00 | 0.00 | 0.00 | 85 | 1007.7 |
| 20260505051023 | 48 | 252 | 8.0 | 12.0 | 0.00 | 0.00 | 0.00 | 85 | 1007.7 |
| 20260505041002 | 48 | 233 | 10.0 | 16.0 | 0.00 | 0.00 | 0.00 | 83 | 1007.1 |
| 20260505040003 | 49 | 243 | 8.0 | 13.0 | 0.00 | 0.00 | 0.00 | 82 | 1007.3 |
| 20260505035003 | 49 | 241 | 7.0 | 14.0 | 0.00 | 0.00 | 0.00 | 81 | 1007.1 |
| 20260505034003 | 49 | 254 | 9.0 | 14.0 | 0.00 | 0.00 | 0.00 | 82 | 1007.0 |
| 20260505033024 | 49 | 245 | 7.0 | 14.0 | 0.00 | 0.00 | 0.00 | 82 | 1006.9 |
| 20260505032024 | 49 | 247 | 8.0 | 15.0 | 0.00 | 0.00 | 0.00 | 82 | 1006.7 |
| 20260505031002 | 49 | 240 | 8.0 | 15.0 | 0.00 | 0.00 | 0.00 | 81 | 1006.7 |
| 20260505030003 | 50 | 250 | 7.0 | 13.0 | 0.00 | 0.00 | 0.00 | 81 | 1006.8 |
| 20260505025002 | 50 | 257 | 8.0 | 16.0 | 0.00 | 0.00 | 0.00 | 80 | 1006.7 |
| 20260505024003 | 50 | 250 | 8.0 | 17.0 | 0.00 | 0.00 | 0.00 | 80 | 1006.7 |
| 20260505023003 | 50 | 256 | 10.0 | 19.0 | 0.00 | 0.00 | 0.00 | 80 | 1006.6 |
| 20260505022002 | 51 | 256 | 12.0 | 22.0 | 0.00 | 0.00 | 0.00 | 80 | 1006.6 |
| 20260505021003 | 51 | 252 | 13.0 | 20.0 | 0.00 | 0.00 | 0.00 | 80 | 1006.6 |
| 20260505020045 | 50 | 255 | 11.0 | 17.0 | 0.00 | 0.00 | 0.00 | 81 | 1006.6 |
| 20260505015023 | 50 | 250 | 10.0 | 16.0 | 0.00 | 0.00 | 0.00 | 82 | 1006.5 |
| 20260505014003 | 49 | 254 | 11.0 | 17.0 | 0.00 | 0.00 | 0.00 | 83 | 1006.5 |
| 20260505013002 | 49 | 247 | 8.0 | 15.0 | 0.00 | 0.00 | 0.00 | 83 | 1006.4 |
| 20260505012003 | 49 | 247 | 8.0 | 14.0 | 0.00 | 0.00 | 0.00 | 83 | 1006.3 |
| 20260505011024 | 49 | 250 | 9.0 | 16.0 | 0.00 | 0.00 | 0.00 | 83 | 1006.3 |
| 20260505010002 | 48 | 253 | 7.0 | 13.0 | 0.00 | 0.00 | 0.00 | 83 | 1006.3 |
| 20260505005024 | 48 | 249 | 6.0 | 10.0 | 0.00 | 0.00 | 0.00 | 84 | 1006.1 |
| 20260505004003 | 48 | 235 | 7.0 | 13.0 | 0.00 | 0.00 | 0.00 | 84 | 1005.8 |
| 20260505003002 | 47 | 230 | 7.0 | 12.0 | 0.00 | 0.00 | 0.00 | 84 | 1005.8 |
| 20260505002003 | 47 | 231 | 7.0 | 10.0 | 0.00 | 0.00 | 0.00 | 84 | 1005.7 |
| 20260505001003 | 48 | 247 | 4.0 | 8.0 | 0.00 | 0.00 | 0.00 | 84 | 1005.7 |
| 20260505000003 | 47 | 231 | 6.0 | 10.0 | 0.00 | 0.00 | 0.00 | 84 | 1005.6 |
| 20260504235003 | 47 | 241 | 4.0 | 10.0 | 0.00 | 0.00 | 0.00 | 83 | 1005.5 |
| 20260504234023 | 48 | 205 | 10.0 | 11.0 | 0.00 | 0.00 | 0.00 | 83 | 1005.3 |
| 20260504233003 | 48 | 208 | 8.0 | 10.0 | 0.00 | 0.00 | 0.00 | 81 | 1005.2 |
| 20260504232002 | 49 | 217 | 4.0 | 8.0 | 0.00 | 0.00 | 0.00 | 81 | 1005.3 |
| 20260504231003 | 49 | 205 | 4.0 | 8.0 | 0.00 | 0.00 | 0.00 | 81 | 1005.2 |
| 20260504230003 | 49 | 200 | 4.0 | 10.0 | 0.00 | 0.00 | 0.00 | 82 | 1004.9 |
| 20260504225002 | 49 | 195 | 8.0 | 11.0 | 0.00 | 0.00 | 0.00 | 81 | 1004.9 |
| 20260504224003 | 49 | 208 | 8.0 | 10.0 | 0.00 | 0.00 | 0.00 | 81 | 1004.7 |
| 20260504223002 | 49 | 216 | 5.0 | 9.0 | 0.00 | 0.00 | 0.00 | 80 | 1004.7 |
| 20260504222003 | 50 | 216 | 4.0 | 9.0 | 0.00 | 0.00 | 0.00 | 80 | 1004.7 |
| 20260504221003 | 50 | 209 | 6.0 | 10.0 | 0.00 | 0.00 | 0.00 | 79 | 1004.9 |
| 20260504220003 | 50 | 211 | 3.0 | 9.0 | 0.00 | 0.00 | 0.00 | 78 | 1004.8 |
| 20260504215003 | 51 | 195 | 8.0 | 11.0 | 0.00 | 0.00 | 0.00 | 77 | 1004.7 |
| 20260504214002 | 51 | 207 | 7.0 | 10.0 | 0.00 | 0.00 | 0.00 | 78 | 1004.8 |
| 20260504213003 | 51 | 192 | 8.0 | 11.0 | 0.00 | 0.00 | 0.00 | 77 | 1004.7 |
| 20260504212003 | 53 | 194 | 6.0 | 7.0 | 0.00 | 0.00 | 0.00 | 76 | 1004.8 |
| 20260504211002 | 52 | 198 | 5.0 | 9.0 | 0.00 | 0.00 | 0.00 | 77 | 1004.7 |
| 20260504210003 | 52 | 219 | 4.0 | 10.0 | 0.00 | 0.00 | 0.00 | 76 | 1004.6 |
| 20260504205003 | 53 | 217 | 3.0 | 10.0 | 0.00 | 0.00 | 0.00 | 77 | 1004.5 |
| 20260504204003 | 53 | 207 | 6.0 | 9.0 | 0.00 | 0.00 | 0.00 | 75 | 1004.4 |
| 20260504203003 | 54 | 234 | 3.0 | 8.0 | 0.00 | 0.00 | 0.00 | 77 | 1004.4 |
| 20260504202003 | 53 | 237 | 3.0 | 7.0 | 0.00 | 0.00 | 0.00 | 77 | 1004.5 |
| 20260504201003 | 53 | 227 | 5.0 | 7.0 | 0.00 | 0.00 | 0.00 | 78 | 1004.6 |
| 20260504200002 | 52 | 237 | 3.0 | 4.0 | 0.00 | 0.00 | 0.00 | 77 | 1004.4 |
| 20260504195003 | 52 | 240 | 2.0 | 6.0 | 0.00 | 0.00 | 0.00 | 76 | 1004.4 |
| 20260504194003 | 53 | 249 | 3.0 | 12.0 | 0.00 | 0.00 | 0.00 | 75 | 1004.5 |
| 20260504193002 | 53 | 252 | 7.0 | 14.0 | 0.00 | 0.00 | 0.00 | 76 | 1004.5 |
| 20260504192002 | 51 | 261 | 9.0 | 14.0 | 0.00 | 0.00 | 0.00 | 78 | 1004.7 |
| 20260504191003 | 50 | 265 | 9.0 | 13.0 | 0.00 | 0.00 | 0.00 | 78 | 1004.7 |
| 20260504190003 | 50 | 273 | 11.0 | 14.0 | 0.00 | 0.00 | 0.00 | 76 | 1004.7 |
| 20260504185002 | 51 | 247 | 7.0 | 13.0 | 0.00 | 0.00 | 0.00 | 74 | 1004.7 |
| 20260504184003 | 52 | 249 | 7.0 | 17.0 | 0.00 | 0.00 | 0.00 | 73 | 1004.6 |
| 20260504183002 | 53 | 266 | 11.0 | 17.0 | 0.00 | 0.00 | 0.00 | 73 | 1004.6 |
| 20260504182003 | 52 | 212 | 13.0 | 21.0 | 0.00 | 0.00 | 0.00 | 74 | 1004.6 |
| 20260504181003 | 50 | 257 | 14.0 | 19.0 | 0.00 | 0.00 | 0.00 | 78 | 1004.6 |
| 20260504180003 | 50 | 238 | 9.0 | 16.0 | 0.00 | 0.01 | 0.00 | 79 | 1004.6 |
| 20260504175045 | 50 | 225 | 9.0 | 14.0 | 0.00 | 0.01 | 0.00 | 80 | 1004.4 |
| 20260504174003 | 50 | 213 | 11.0 | 17.0 | 0.00 | 0.02 | 0.00 | 79 | 1004.3 |
| 20260504173002 | 51 | 211 | 14.0 | 20.0 | 0.00 | 0.03 | 0.00 | 78 | 1004.4 |
| 20260504172003 | 51 | 211 | 15.0 | 22.0 | 0.00 | 0.03 | 0.00 | 77 | 1004.4 |
| 20260504171002 | 51 | 209 | 18.0 | 21.0 | 0.00 | 0.03 | 0.00 | 78 | 1004.3 |
| 20260504151002 | 49 | 210 | 10.0 | 16.0 | 0.00 | 0.07 | 0.00 | 81 | 1005.6 |